[[{"header":{"parameterUnit":"m.s-1","parameterCategory":1,"la1":30.2991,"la2":30.254,"lo1":-89.0895,"lo2":-89.0444,"dy":0.0017,"dx":0.0017,"nx":28,"ny":28,"refTime":"2025-03-12T09:00:00:Z","depth":0,"parameterNumber":2,"parameterNumberName":"U-component_of_WINDS"},"data":[0,0,0,0,0,0,0,0,0,0,0,0,0,0,0,0,0,0,0,0,0,0,0,0,0,0,0,0,0,0,0,0,0,0,0,0,0,0,0,0,0,0,0,0,0,0,0,0,0,0,0,0,0,0,0,0,0,0,3.2067,3.2068,0,3.2108,3.2109,3.2109,3.2005,3.2002,3.1999,3.1996,3.2042,3.2047,3.2051,0,0,0,0,0,0,0,0,0,0,0,0,0,3.1901,3.1905,3.2067,3.2068,3.2068,3.2108,3.2109,3.2109,3.2006,3.2002,3.1998,3.1994,3.2041,3.2046,3.2051,0,0,0,0,0,0,0,0,0,0,0,0,0,3.1961,3.1906,3.2067,3.2021,3.2018,3.2108,3.2109,3.211,3.2007,3.2002,3.1997,3.1992,3.2039,3.2046,3.2052,3.219,0,0,3.2072,3.2074,0,0,0,0,0,0,0,0,3.1958,3.1967,3.2027,3.2025,3.2021,3.2046,3.2067,3.2137,3.2008,3.2011,3.1996,3.199,3.2048,3.2054,3.2072,3.2193,3.2195,3.2072,3.2076,3.2079,3.2081,0,0,0,0,0,0,0,3.1954,3.1965,3.2084,3.2029,3.2024,3.1999,3.2002,3.208,3.2057,3.201,3.2003,3.2009,3.2045,3.2066,3.2073,3.2195,3.2072,3.2078,3.2082,3.2084,3.2428,3.2433,0,0,0,0,0,0,3.1955,3.1962,3.2082,3.2085,3.1976,3.2006,3.201,3.2043,3.2056,3.2053,3.2013,3.2004,3.2058,3.2065,3.2074,3.2235,3.2079,3.2085,3.2089,3.2423,3.2429,3.2435,0,0,0,0,0,0,3.1952,3.1967,3.2081,3.2021,3.2034,3.2014,3.2053,3.2047,3.2067,3.2058,3.2053,3.2039,3.2054,3.2065,3.2161,3.2235,3.2088,3.2094,3.2417,3.2425,3.2432,3.2559,0,0,0,0,0,0,3.1948,3.1966,3.2018,3.2023,3.2038,3.2167,3.2057,3.2051,3.2078,3.2067,3.208,3.2078,3.2051,3.2152,3.2168,3.2241,3.2099,3.241,3.2421,3.243,3.2548,3.257,3.2589,0,0,0,0,0,3.1942,3.2054,3.2021,3.2037,3.2102,3.2172,3.218,3.2145,3.2085,3.2137,3.213,3.2078,3.2224,3.2163,3.2179,3.2256,3.2405,3.2418,3.2429,3.2539,3.2566,3.2589,0,0,0,0,0,0,3.206,3.2054,3.2018,3.2134,3.2154,3.2154,3.2219,3.2175,3.2214,3.2201,3.2158,3.2162,3.2266,3.2271,3.2202,3.2389,3.2305,3.232,3.2382,3.2408,3.2428,3.2425,3.2104,0,0,0,0,0,3.21,3.2156,3.2147,3.2251,3.2262,3.2239,3.2268,3.2239,3.2259,3.2267,3.2267,3.2289,3.2339,3.2374,3.242,3.2548,3.2549,3.2609,3.2629,3.2646,3.266,3.2726,3.2752,3.2474,3.2474,3.2474,0,0,3.2182,3.2185,3.2224,3.2275,3.2287,3.2346,3.2247,3.2315,3.2358,3.2278,3.2368,3.2369,3.239,3.2502,3.2552,3.2509,3.2737,3.2661,3.2675,3.268,3.2741,3.2767,3.2791,3.2482,3.2481,3.2479,0,0,3.2362,3.2371,3.2457,3.247,3.2488,3.2472,3.2492,3.2498,3.2495,3.2585,3.2525,3.2576,3.2665,3.2682,3.2702,3.2886,3.2838,3.2902,3.3009,3.3074,3.3096,3.3115,3.3179,3.3203,3.2916,3.2917,3.2917,0,3.2463,3.2549,3.2507,3.2578,3.2602,3.2529,3.2616,3.2631,3.2665,3.2683,3.2634,3.2742,3.2751,3.2865,3.291,3.2929,3.2951,3.29,3.3096,3.3115,3.3132,3.3193,3.3217,3.2924,3.2923,3.2922,3.2922,0,3.2671,3.2731,3.2799,3.283,3.2861,3.294,3.2911,3.2948,3.2916,3.2904,3.2995,3.3004,3.3049,3.3074,3.3045,3.3184,3.3156,3.3103,3.3017,3.3167,3.3223,3.3246,3.2935,3.2932,3.293,3.2928,0,0,3.2928,3.2933,3.2959,3.2971,3.2984,3.3031,3.3106,3.3148,3.318,3.3205,3.3266,3.3342,3.3291,3.3314,3.3286,3.3343,3.3485,3.3282,3.3281,3.3318,3.3637,3.3677,3.3704,3.3454,3.3458,3.3462,3.3635,0,3.3104,3.3231,3.3195,3.3322,3.3377,3.3308,3.3373,3.3389,3.3379,3.3425,3.3415,3.3468,3.3398,3.3411,3.3465,3.3457,3.3549,3.3444,3.3511,3.3513,3.3507,3.3734,3.3777,3.394,3.3657,3.366,3.3663,0,3.3328,3.3358,3.3491,3.3493,3.3514,3.3574,3.3608,3.3653,3.3669,3.3658,3.3682,3.3641,3.3715,3.3628,3.3729,3.3658,3.3683,3.3683,3.3689,3.3693,3.3597,3.3744,3.3991,3.4015,3.3698,3.3695,3.3692,0,3.35,3.3575,3.3663,3.3676,3.3681,3.3724,3.3729,3.3739,3.3766,3.3797,3.3814,3.3854,3.3876,3.3908,3.3879,3.3819,3.3983,3.3895,3.3976,3.3977,3.4014,3.4012,3.4268,3.4032,3.4031,3.4031,3.403,0,3.37,3.3784,3.374,3.3795,3.3885,3.3843,3.3935,3.3931,3.3941,3.3993,3.3937,3.3987,3.3946,3.3993,3.3971,3.4057,3.4068,3.4061,3.4054,3.4065,3.4066,3.4081,3.4069,3.4037,3.4036,3.4035,3.4034,0,3.3908,3.3883,3.3974,3.397,3.3971,3.4039,3.4036,3.4086,3.4071,3.4138,3.4152,3.413,3.4182,3.4156,3.4211,3.4196,3.4306,3.4285,3.43,3.4294,3.4377,3.4369,3.4651,3.4685,3.4428,3.443,3.4432,0,3.4038,3.41,3.4102,3.4132,3.414,3.419,3.4216,3.4177,3.4207,3.4228,3.4275,3.4322,3.4357,3.4444,3.4433,3.4475,3.4453,3.4549,3.4459,3.4468,3.4453,3.4449,3.4454,3.4567,3.457,3.4572,3.4574,0,3.4269,3.4253,3.4292,3.4328,3.436,3.4387,3.4408,3.4436,3.4397,3.4434,3.4485,3.4512,3.4566,3.4613,3.4648,3.4653,3.4608,3.4602,3.4623,3.4635,3.4641,3.4638,3.4349,3.4596,3.4594,3.4592,3.4591,3.459,3.4441,3.4492,3.4501,3.4546,3.4558,3.4579,3.4625,3.4615,3.4657,3.4697,3.4671,3.4732,3.4744,3.4786,3.4797,3.4843,3.4805,3.4836,3.4844,3.4851,3.4862,3.4634,3.485,3.4849,3.4849,3.4848,3.4848,0,3.4668,3.467,3.4712,3.4743,3.4779,3.473,3.4751,3.4784,3.4837,3.4852,3.4887,3.4946,3.499,3.4982,3.5023,3.5061,3.5041,3.5073,3.507,3.5071,3.4894,3.4872,3.5089,3.5089,3.5089,3.5089,3.5089,3.5089,3.4791,3.4874,3.4858,3.4946,3.4947,3.5004,3.502,3.5039,3.505,3.5117,3.5153,3.5147,3.5153,3.5192,3.5231,3.5227,3.5245,3.5284,3.5273,3.5108,3.5084,3.5061,3.504,3.5289,3.5289,3.5446,3.5448,3.5449]},{"header":{"parameterUnit":"m.s-1","parameterCategory":1,"la1":30.2991,"la2":30.254,"lo1":-89.0895,"lo2":-89.0444,"dy":0.0017,"dx":0.0017,"nx":28,"ny":28,"refTime":"2025-03-12T09:00:00:Z","depth":0,"parameterNumber":3,"parameterNumberName":"V-component_of_WINDS"},"data":[0,0,0,0,0,0,0,0,0,0,0,0,0,0,0,0,0,0,0,0,0,0,0,0,0,0,0,0,0,0,0,0,0,0,0,0,0,0,0,0,0,0,0,0,0,0,0,0,0,0,0,0,0,0,0,0,0,0,4.7116,4.7117,0,4.7199,4.72,4.7201,4.7157,4.7155,4.7153,4.7151,4.7231,4.7235,4.7239,0,0,0,0,0,0,0,0,0,0,0,0,0,4.6913,4.6917,4.7116,4.7117,4.7118,4.7199,4.72,4.7201,4.7157,4.7155,4.7152,4.7149,4.7229,4.7234,4.7239,0,0,0,0,0,0,0,0,0,0,0,0,0,4.6999,4.6918,4.7115,4.7106,4.7106,4.7199,4.72,4.7201,4.7158,4.7155,4.7151,4.7148,4.7228,4.7234,4.724,4.7346,0,0,4.7259,4.7262,0,0,0,0,0,0,0,0,4.6994,4.7007,4.7106,4.7107,4.7107,4.7164,4.7158,4.725,4.7159,4.7138,4.715,4.7147,4.7211,4.7218,4.7241,4.7349,4.7353,4.726,4.7264,4.7266,4.7268,0,0,0,0,0,0,0,4.6988,4.7003,4.7148,4.7108,4.7108,4.7095,4.7104,4.7175,4.7192,4.714,4.7137,4.7147,4.721,4.7235,4.7243,4.7354,4.726,4.7265,4.7269,4.7272,4.7551,4.7555,0,0,0,0,0,0,4.6984,4.6998,4.7146,4.7151,4.7041,4.7102,4.7111,4.7149,4.7191,4.7194,4.715,4.7145,4.7226,4.7236,4.7245,4.7371,4.7266,4.7272,4.7276,4.7548,4.7552,4.7556,0,0,0,0,0,0,4.698,4.6997,4.7142,4.7074,4.7091,4.7109,4.7152,4.7153,4.7177,4.7199,4.7201,4.7173,4.7224,4.7237,4.7321,4.7373,4.7275,4.7281,4.7543,4.7549,4.7554,4.7623,0,0,0,0,0,0,4.6974,4.6996,4.7038,4.7075,4.7095,4.7219,4.7155,4.7157,4.7189,4.7183,4.7221,4.7224,4.7222,4.7312,4.7327,4.738,4.7286,4.7539,4.7546,4.7552,4.7616,4.763,4.7642,0,0,0,0,0,4.6967,4.7053,4.704,4.7058,4.7148,4.7222,4.7233,4.7231,4.7193,4.7234,4.7248,4.7223,4.7365,4.7321,4.7338,4.7393,4.7535,4.7544,4.7552,4.761,4.7628,4.7642,0,0,0,0,0,0,4.7019,4.7058,4.7044,4.7145,4.7181,4.7214,4.7266,4.7249,4.7295,4.7287,4.728,4.7289,4.7377,4.7393,4.7344,4.7497,4.7444,4.7456,4.7483,4.7499,4.7512,4.7506,4.7291,0,0,0,0,0,4.7043,4.7102,4.7131,4.7217,4.7236,4.7248,4.728,4.7276,4.7311,4.7326,4.7346,4.738,4.7432,4.7467,4.7516,4.7619,4.7625,4.7665,4.7678,4.7688,4.7699,4.7753,4.777,4.7583,4.7583,4.7583,0,0,4.7092,4.712,4.7157,4.7229,4.7256,4.7315,4.7261,4.7326,4.7369,4.7335,4.7416,4.7432,4.747,4.7564,4.7606,4.758,4.7752,4.7699,4.7707,4.7712,4.7763,4.7781,4.7796,4.7588,4.7587,4.7587,0,0,4.7211,4.7239,4.7314,4.7342,4.7385,4.7392,4.741,4.7446,4.7456,4.7538,4.7513,4.7563,4.7654,4.7682,4.7708,4.7837,4.7815,4.7853,4.7921,4.7974,4.7988,4.8001,4.8046,4.8063,4.7863,4.7863,4.7864,0,4.7266,4.7356,4.7354,4.7421,4.7452,4.7426,4.75,4.7527,4.7583,4.7604,4.7575,4.7688,4.7711,4.7811,4.7842,4.7865,4.7883,4.7848,4.7987,4.8,4.8012,4.8055,4.8072,4.7868,4.7867,4.7867,4.7866,0,4.7421,4.7483,4.7538,4.7594,4.7632,4.7702,4.7709,4.7747,4.7739,4.7749,4.7831,4.7859,4.7913,4.7936,4.7928,4.8034,4.8017,4.7988,4.7934,4.8034,4.8074,4.8091,4.7874,4.7872,4.7871,4.787,0,0,4.7575,4.763,4.765,4.7674,4.7719,4.7766,4.7834,4.7889,4.7921,4.796,4.8016,4.8093,4.8066,4.8096,4.8091,4.8137,4.8237,4.8102,4.8102,4.8125,4.8353,4.8375,4.8394,4.8222,4.8226,4.8228,4.835,0,4.7697,4.7818,4.7818,4.793,4.7986,4.7962,4.8021,4.8054,4.8065,4.8113,4.8124,4.8179,4.814,4.8157,4.8202,4.8215,4.8282,4.8206,4.8273,4.8275,4.8263,4.8415,4.8438,4.8552,4.8366,4.8368,4.837,0,4.7855,4.7901,4.8018,4.8054,4.8078,4.8132,4.8181,4.8228,4.8264,4.8268,4.8302,4.8289,4.8356,4.8302,4.8394,4.8342,4.8369,4.838,4.8384,4.8389,4.8328,4.8423,4.8588,4.8605,4.8395,4.8393,4.8391,0,4.7954,4.8045,4.8127,4.8149,4.8193,4.8231,4.8251,4.8284,4.8317,4.8359,4.838,4.8429,4.8456,4.8494,4.8494,4.8455,4.8587,4.8532,4.8591,4.8591,4.8619,4.8617,4.8789,4.8638,4.8638,4.8637,4.8637,0,4.8089,4.8162,4.8173,4.8223,4.8303,4.8301,4.838,4.8396,4.8425,4.8477,4.8458,4.8507,4.8505,4.8553,4.8554,4.8629,4.8642,4.8646,4.8645,4.8647,4.8647,4.8664,4.8656,4.8642,4.8641,4.864,4.8639,0,4.8214,4.8224,4.8312,4.8347,4.8357,4.8415,4.8443,4.849,4.85,4.8565,4.858,4.8594,4.865,4.8655,4.8719,4.872,4.8811,4.8801,4.8799,4.8797,4.8855,4.8849,4.9044,4.9068,4.8902,4.8904,4.8905,0,4.8299,4.8355,4.8396,4.843,4.8453,4.8508,4.8541,4.8541,4.8577,4.8622,4.8663,4.8717,4.8761,4.8851,4.8866,4.8915,4.8906,4.8971,4.8913,4.8914,4.8906,4.8902,4.8907,4.8982,4.8984,4.8985,4.8987,0,4.8449,4.8451,4.8501,4.8554,4.8595,4.8635,4.8673,4.8701,4.8705,4.8746,4.8804,4.8838,4.8905,4.8958,4.9006,4.9024,4.9006,4.9005,4.9021,4.9023,4.9019,4.9021,4.8829,4.9,4.8999,4.8998,4.8997,4.8996,4.8555,4.8604,4.864,4.8696,4.8725,4.8761,4.8807,4.8822,4.8872,4.8927,4.8923,4.8987,4.902,4.9083,4.9105,4.9154,4.9131,4.9155,4.916,4.9166,4.9172,4.9012,4.9162,4.9162,4.9162,4.9161,4.9161,0,4.8703,4.8726,4.8778,4.8832,4.8876,4.8857,4.8898,4.8935,4.8992,4.9025,4.9069,4.9135,4.9187,4.9207,4.9257,4.9292,4.9285,4.9305,4.9302,4.9306,4.9189,4.917,4.931,4.931,4.931,4.931,4.931,4.931,4.8785,4.8866,4.8872,4.8966,4.8987,4.9051,4.9076,4.9108,4.9135,4.921,4.9254,4.9267,4.9294,4.9346,4.9392,4.9396,4.9415,4.9439,4.944,4.933,4.9314,4.93,4.9282,4.9444,4.9444,4.9553,4.9554,4.9554]}]]